This is the latest recevied weather packets stored in our database for station/object W1SCW. If no packets are shown the sender has not sent any weather packets the latest 10 day(s).
| Time | Temp. | Humidity | Pressure | Rain* | Wind** | Luminosity | Snow |
|---|---|---|---|---|---|---|---|
| 1777745081 | 22.78° C | 52% | 1018.9 hPa | 0 mm | - | 720 W/m² | - |
| 1777744777 | 22.22° C | 51% | 1018.9 hPa | 0 mm | - | 723 W/m² | - |
| 1777744471 | 22.22° C | 51% | 1019 hPa | 0 mm | - | 719 W/m² | - |
| 1777744168 | 22.22° C | 52% | 1019.2 hPa | 0 mm | - | 713 W/m² | - |
| 1777743865 | 22.78° C | 50% | 1019.2 hPa | 0 mm | - | 709 W/m² | - |
| 1777743562 | 22.22° C | 53% | 1019.5 hPa | 0 mm | - | 704 W/m² | - |
| 1777743259 | 22.22° C | 52% | 1019.5 hPa | 0 mm | - | 713 W/m² | - |
| 1777742958 | 22.22° C | 51% | 1019.6 hPa | 0 mm | - | 691 W/m² | - |
| 1777742654 | 22.22° C | 51% | 1019.6 hPa | 0 mm | - | 690 W/m² | - |
| 1777742350 | 21.67° C | 51% | 1019.7 hPa | 0 mm | - | 688 W/m² | - |
| 1777742046 | 21.67° C | 53% | 1019.6 hPa | 0 mm | - | 682 W/m² | - |
| 1777741744 | 21.67° C | 53% | 1019.6 hPa | 0 mm | - | 665 W/m² | - |
| 1777741440 | 21.67° C | 52% | 1019.7 hPa | 0 mm | - | 667 W/m² | - |
| 1777741136 | 21.11° C | 53% | 1019.2 hPa | 0 mm | - | 664 W/m² | - |
| 1777740833 | 21.67° C | 55% | 1019.5 hPa | 0 mm | - | 660 W/m² | - |
| 1777740530 | 21.11° C | 54% | 1019.5 hPa | 0 mm | - | 648 W/m² | - |
| 1777740227 | 21.11° C | 58% | 1019.5 hPa | 0 mm | - | 643 W/m² | - |
| 1777739923 | 21.67° C | 60% | 1019.3 hPa | 0 mm | - | 636 W/m² | - |
| 1777739619 | 20.56° C | 61% | 1019.5 hPa | 0 mm | - | 636 W/m² | - |
| 1777739317 | 21.11° C | 60% | 1019.6 hPa | 0 mm | - | 630 W/m² | - |
| 1777739013 | 21.11° C | 62% | 1019.7 hPa | 0 mm | - | 622 W/m² | - |
| 1777738711 | 20.56° C | 59% | 1019.5 hPa | 0 mm | - | 607 W/m² | - |
| 1777738407 | 20.56° C | 63% | 1019.5 hPa | 0 mm | - | 595 W/m² | - |
| 1777738105 | 20.56° C | 63% | 1019.3 hPa | 0 mm | - | 586 W/m² | - |
| 1777737804 | 20.56° C | 63% | 1019.3 hPa | 0 mm | - | 575 W/m² | - |
* Rain latest hour (hover to see other rain measurements)
** Current wind speed in m/s (hover to see current wind gust speed)